TimeMST,TemperatureF,Dew PointF,Humidity,Sea Level PressureIn,VisibilityMPH,Wind Direction,Wind SpeedMPH,Gust SpeedMPH,PrecipitationIn,Events,Conditions,WindDirDegrees,DateUTC
12:53 AM,8.1,5.0,87,30.07,10.0,Calm,Calm,-,N/A,,Partly Cloudy,0,2014-01-31 07:53:00
1:53 AM,8.1,3.9,83,30.05,10.0,Calm,Calm,-,N/A,,Partly Cloudy,0,2014-01-31 08:53:00
2:53 AM,7.0,3.0,84,30.05,10.0,Calm,Calm,-,N/A,,Clear,0,2014-01-31 09:53:00
3:53 AM,8.1,3.0,80,30.05,10.0,WSW,4.6,-,N/A,,Mostly Cloudy,250,2014-01-31 10:53:00
4:53 AM,9.0,3.9,80,30.05,10.0,West,3.5,-,N/A,,Overcast,260,2014-01-31 11:53:00
5:53 AM,10.9,5.0,77,30.05,10.0,Calm,Calm,-,0.00,,Overcast,0,2014-01-31 12:53:00
6:53 AM,10.9,3.9,73,30.04,10.0,Calm,Calm,-,0.00,,Overcast,0,2014-01-31 13:53:00
7:53 AM,8.1,5.0,87,30.05,10.0,Calm,Calm,-,N/A,,Clear,0,2014-01-31 14:53:00
8:53 AM,7.0,1.9,80,30.06,10.0,Calm,Calm,-,N/A,,Clear,0,2014-01-31 15:53:00
9:53 AM,12.9,7.0,77,30.05,10.0,Calm,Calm,-,N/A,,Clear,0,2014-01-31 16:53:00
10:53 AM,15.1,8.1,74,30.05,10.0,Calm,Calm,-,N/A,,Mostly Cloudy,0,2014-01-31 17:53:00
11:53 AM,17.1,7.0,65,30.04,10.0,Calm,Calm,-,N/A,,Mostly Cloudy,0,2014-01-31 18:53:00
12:53 PM,19.0,9.0,65,30.01,10.0,Calm,Calm,-,N/A,,Overcast,0,2014-01-31 19:53:00
1:53 PM,19.9,10.0,65,29.99,10.0,Calm,Calm,-,N/A,,Overcast,0,2014-01-31 20:53:00
2:53 PM,21.9,10.9,63,29.98,10.0,NE,4.6,-,N/A,,Mostly Cloudy,50,2014-01-31 21:53:00
3:53 PM,21.0,12.9,71,30.01,2.0,Calm,Calm,-,0.00,Snow,Light Snow,0,2014-01-31 22:53:00
4:05 PM,19.4,15.8,86,29.79,1.5,NW,3.5,-,0.00,Snow,Light Snow,320,2014-01-31 23:05:00
4:18 PM,19.4,15.8,86,29.80,3.0,WNW,3.5,-,0.01,Snow,Light Snow,300,2014-01-31 23:18:00
4:53 PM,19.9,10.9,68,30.05,7.0,North,13.8,-,0.01,Snow,Light Snow,360,2014-01-31 23:53:00
5:30 PM,19.4,10.4,68,29.85,10.0,NNW,11.5,-,N/A,,Overcast,330,2014-02-01 00:30:00
5:37 PM,17.6,8.6,68,29.85,10.0,NNW,10.4,-,N/A,,Overcast,330,2014-02-01 00:37:00
5:53 PM,18.0,9.0,68,30.09,10.0,NW,9.2,-,N/A,,Overcast,310,2014-02-01 00:53:00
6:53 PM,18.0,8.1,65,30.12,10.0,WNW,10.4,-,N/A,,Overcast,300,2014-02-01 01:53:00
7:53 PM,17.1,10.0,74,30.16,5.0,NNW,8.1,-,0.00,Snow,Light Snow,330,2014-02-01 02:53:00
8:09 PM,15.8,10.4,79,29.92,2.0,NW,9.2,-,0.00,Snow,Light Snow,310,2014-02-01 03:09:00
8:39 PM,15.8,12.2,86,29.93,1.8,WNW,8.1,-,0.00,Snow,Light Snow,290,2014-02-01 03:39:00
8:53 PM,16.0,12.0,84,30.18,2.0,West,8.1,-,0.00,Snow,Light Snow,280,2014-02-01 03:53:00
9:13 PM,15.8,10.4,79,29.94,3.0,West,8.1,-,0.01,Snow,Light Snow,280,2014-02-01 04:13:00
9:53 PM,16.0,9.0,74,30.18,10.0,NW,11.5,-,0.01,,Overcast,310,2014-02-01 04:53:00
10:53 PM,15.1,7.0,70,30.19,10.0,WNW,8.1,-,N/A,,Overcast,290,2014-02-01 05:53:00
11:53 PM,15.1,7.0,70,30.22,10.0,NW,9.2,-,N/A,,Overcast,310,2014-02-01 06:53:00